Location: Escondido Hill
(38.9119°N, 104.7815°W)
Time: 02:40:02
(UTC-07:00)

N. Korean satellite - Pass Details

Date: 19 October 2019
Orbit: 456 x 506 km, 97.2° (Epoch: 18 November)

Event Time Altitude Azimuth Distance (km) Brightness Sun altitude
Rises 19:14:03 0° 214° (SW) 2,456 10.7 -12.2°
Reaches altitude 10° 19:17:38 10° 255° (WSW) 1,592 10.6 -12.9°
Maximum altitude 19:18:25 11° 269° (W) 1,556 10.6 -13.0°
Drops below altitude 10° 19:19:13 10° 282° (WNW) 1,597 10.5 -13.2°
Sets 19:22:51 0° 323° (NW) 2,486 10.7 -13.9°
